Location: Seattle
(47.6064°N, 122.3308°W)
Time: 03:01:46
(UTC-07:00)

ITUPSAT 1 - Pass Details

Date: 06 April 2023
Orbit: 697 x 710 km, 98.5° (Epoch: 29 May)

Event Time Altitude Azimuth Distance (km) Brightness Sun altitude
Rises 00:00:44 0° 360° (N) 3,120 ? -33.8°
Reaches altitude 10° 00:03:49 10° 339° (NNW) 2,194 ? -34.0°
Maximum altitude 00:06:37 16° 303° (WNW) 1,830 ? -34.1°
Enters shadow 00:08:13 14° 280° (W) 1,952 ? -34.2°
